OpenBCM V1.08-3-g9b42 (Linux)

Packet Radio Mailbox

OK0NBR

[Sao_Jose_dos_Campo]

 Login: GUEST





  
I0OJJ  > KEPS     13.12.25 22:33l 326 Lines 15608 Bytes #286 (0) @ AMSAT
BID : ORB25348.1
Read: GUEST
Subj: 2Line Orbital Elements 25348.AMSAT
Path: OK0NBR<IW0QNL<HB9ON<DK0WUE<PD0LPM<PI8ZTM<CX2SA<EA2RCF<I0OJJ
Sent: 251214/0021z @:I0OJJ.ITA.EU [Rome] obcm1.08-11-2-gbfe9
From: I0OJJ @ I0OJJ.ITA.EU (Gustavo)
To:   KEPS @ AMSAT
X-Info: This message was generated automatically


QST de W1STR

AMSAT Orbital Elements for Amateur Satellites in TLE Format
From Orbital Analysis Office
New England Sci-Tech STEM Education Center
Natick MA December 14, 2025
To all radio amateurs


These element sets describe the orbits of various satellites 
in use by the amateur radio community. For details see:
www.amsat.org/keplerian-elements-formats/

A daily update of element sets is available at:
www.amsat.org/tle/daily-bulletin.txt
or without bulletin text:
www.amsat.org/tle/dailytle.txt


AO-07
1 07530U 74089B   25347.28281122 -.00000025  00000-0  13572-3 0  9999
2 07530 101.9967 353.5562 0012374 125.6199 246.4821 12.53694166337226
UO-11
1 14781U 84021B   25346.86053170  .00002939  00000-0  30918-3 0  9993
2 14781  97.7811 309.8871 0009320  81.9065 278.3210 14.90143516229375
AO-27
1 22825U 93061C   25347.13848659  .00000208  00000-0  96190-4 0  9992
2 22825  98.7146  49.4067 0007339 288.4127  71.6257 14.30876971680390
FO-29
1 24278U 96046B   25347.21661268 -.00000019  00000-0  17814-4 0  9997
2 24278  98.5462 216.2882 0349177 218.7362 138.8267 13.53262928448011
GO-32
1 25397U 98043D   25347.19849032  .00000163  00000-0  90488-4 0  9990
2 25397  98.9920 330.4211 0002039  56.6374 303.4999 14.24377217424852
ISS
1 25544U 98067A   25347.12152100  .00016130  00000-0  29450-3 0  9997
2 25544  51.6303 140.5889 0003238 241.9684 118.0978 15.49559837542916
NO-44
1 26931U 01043C   25347.29500365  .00000319  00000-0  14988-3 0  9996
2 26931  67.0515   5.0428 0007437 270.0847  89.9403 14.31855372263839
SO-50
1 27607U 02058C   25347.27770704  .00003444  00000-0  42779-3 0  9999
2 27607  64.5547 343.9363 0072248 296.5023  62.8686 14.82395165236894
CO-55
1 27844U 03031E   25347.29256032  .00000603  00000-0  28053-3 0  9992
2 27844  98.6766 353.1884 0009762  11.8884 348.2523 14.24180071165215
CO-57
1 27848U 03031J   25346.97818520  .00000480  00000-0  23011-3 0  9998
2 27848  98.6792 352.7398 0009979  30.1158 330.0593 14.23487467164887
RS-22
1 27939U 03042A   25347.33250094  .00002041  00000-0  32592-3 0  9997
2 27939  98.3369 161.5481 0012143 134.0839 345.5798 14.72973089188182
CO-58
1 28895U 05043F   25346.91750934  .00003111  00000-0  50413-3 0  9994
2 28895  98.2721 133.9982 0015361  77.6955 282.5970 14.71901702 74346
CO-65
1 32785U 08021C   25347.23630819  .00009626  00000-0  64541-3 0  9995
2 32785  97.8080 320.3320 0007883 308.8312  51.2211 15.07055433957166
CO-66
1 32791U 08021J   25347.23157210  .00029156  00000-0  11581-2 0  9996
2 32791  97.7445 332.3938 0001381 203.4259 156.6916 15.25283576958874
RS-30
1 32953U 08025A   25347.35441089  .00000120  00000-0  78901-3 0  9993
2 32953  82.5020 111.0406 0018990 359.7462   0.3605 12.43172384796604
SRMSAT
1 37841U 11058D   25347.03845596  .00000506  00000-0  13117-3 0  9996
2 37841  19.9710 106.1426 0011768 316.7615 198.8861 14.11511594731480
ZACUBE-1
1 39417U 13066B   25346.85863495  .00007005  00000-0  57114-3 0  9991
2 39417  97.8066 303.4041 0041920 146.5952 213.7929 14.99088052652793
Delfi-N3xt
1 39428U 13066N   25347.27790065  .00012831  00000-0  11972-2 0  9996
2 39428  97.8341 263.1752 0080941 103.6042 257.4207 14.91839622646877
GOMX-1
1 39430U 13066Q   25347.31049928  .00004007  00000-0  61478-3 0  9992
2 39430  97.6591 194.4002 0129720 314.7439  44.3266 14.68589876642627
LO-74
1 39440U 13066AA  25347.27569864  .00008878  00000-0  85360-3 0  9990
2 39440  97.8705 290.9464 0057894 284.0381  75.4406 14.91983936649256
AO-73
1 39444U 13066AE  25347.18657820  .00013351  00000-0  90343-3 0  9993
2 39444  97.8061 310.4702 0040439 114.3912 246.1543 15.05967941651638
DTUSAT-2
1 40030U 14033W   25346.93445086  .00011368  00000-0  66988-3 0  9996
2 40030  98.0758 328.4118 0009425 139.1100 221.0838 15.11739624624519
EO-80
1 40032U 14033Y   25347.20984403  .00013165  00000-0  77281-3 0  9995
2 40032  98.0641 328.0956 0009997  88.2842 271.9532 15.11830614624537
LILACSAT-2
1 40908U 15049K   25347.31921479  .00023914  00000-0  51215-3 0  9993
2 40908  97.4918  12.7189 0007273 194.6897 165.4141 15.44750260566993
IO-86
1 40931U 15052B   25151.18580175  .00001241  00000-0  78118-4 0  9996
2 40931   6.0006  24.0987 0012733 338.8432  21.1169 14.78805930523159
Horyu-4
1 41340U 16012D   25347.19825850  .00071466  00000-0  11908-2 0  9996
2 41340  30.9949 306.8336 0006996 237.7930 122.2041 15.50642466541627
Lapan A3
1 41603U 16040E   25347.28282352  .00006716  00000-0  22253-3 0  9995
2 41603  97.1432 344.8193 0009561 331.9221  28.1505 15.31559036526345
CAS-2T
1 41847U 16066G   25347.17733538  .00001640  00000-0  24091-3 0  9991
2 41847  98.4036  59.9132 0343221 333.8322  24.5867 14.44132203477941
TechnoSat
1 42829U 17042E   25347.32747182  .00006741  00000-0  49778-3 0  9990
2 42829  97.4046 147.5076 0018399  11.6688 348.4961 15.03423250458767
AO-91
1 43017U 17073E   25347.17528841  .00015704  00000-0  74128-3 0  9992
2 43017  97.4957 213.3614 0159533 248.9711 109.4391 15.08878008437305
S-Net D
1 43186U 18014G   25347.28263468  .00011202  00000-0  61354-3 0  9994
2 43186  97.5482 248.3661 0007331 311.2238  48.8361 15.14365230430606
S-Net B
1 43187U 18014H   25347.29069943  .00010659  00000-0  58435-3 0  9999
2 43187  97.5487 248.3544 0007886 305.0259  55.0232 15.14340033430602
S-Net A
1 43188U 18014J   25347.28234039  .00011164  00000-0  61130-3 0  9997
2 43188  97.5496 248.5229 0007839 306.2183  53.8324 15.14371772430604
S-Net C
1 43189U 18014K   25347.29366510  .00010521  00000-0  57680-3 0  9990
2 43189  97.5511 248.5794 0009058 296.2092  63.8208 15.14335264429158
Ten-Koh
1 43677U 18084G   25347.24465602  .00005180  00000-0  40170-3 0  9997
2 43677  98.0746 166.8849 0009352  22.8027 337.3610 15.01824566388241
PO-101
1 43678U 18084H   25347.31940057  .00004314  00000-0  35701-3 0  9990
2 43678  98.1028 170.8052 0007586  45.1198 315.0639 14.99439973388357
QO-100
1 43700U 18090A   25347.13750125  .00000158  00000-0  00000-0 0  9991
2 43700   0.0019   6.6530 0000984 263.5377 247.2147  1.00268864 25818
MinXSS-2
1 43758U 18099A   25347.14652291  .00037206  00000-0  11086-2 0  9991
2 43758  97.4799  54.5162 0009024 211.1018 148.9691 15.34548763385488
AO-95
1 43770U 18099N   25347.12166828  .00017695  00000-0  77862-3 0  9994
2 43770  97.4680  43.4011 0008270 284.6402  75.3917 15.21893793384873
SNUSat 2
1 43782U 18099AA  25347.12011061  .00012994  00000-0  63576-3 0  9999
2 43782  97.4358  38.5199 0010032 220.8320 139.2164 15.18284196384769
SnugLite
1 43784U 18099AC  25347.10872392  .00018410  00000-0  80119-3 0  9992
2 43784  97.4170  38.5568 0002307 199.1658 160.9492 15.22287680384964
ITASat 1
1 43786U 18099AE  25347.09395939  .00011917  00000-0  62094-3 0  9996
2 43786  97.4329  37.3977 0012006 282.4035  77.5854 15.16079060384683
EAGLET 1
1 43790U 18099AJ  25347.10214602  .00007842  00000-0  47109-3 0  9992
2 43790  97.4526  36.6301 0010099 268.4657  91.5417 15.11117738384214
ESEO
1 43792U 18099AL  25347.08104124  .00003259  00000-0  24316-3 0  9991
2 43792  97.4221  27.2513 0011134 246.8220 113.1834 15.03477467383836
JO-97
1 43803U 18099AX  25347.14331003  .00023711  00000-0  89896-3 0  9998
2 43803  97.4424  44.9581 0005874 200.2714 159.8293 15.26862006385178
Suomi 100
1 43804U 18099AY  25347.11540319  .00019717  00000-0  83097-3 0  9996
2 43804  97.4491  43.5729 0010267 211.0979 148.9651 15.23320654385045
ISAT
1 43879U 18111D   25347.32102417  .00062459  00000-0  14624-2 0  9999
2 43879  97.5900 267.0425 0003431 248.3540 111.7341 15.41894974382335
UWE-4
1 43880U 18111E   25347.02465135  .00034841  00000-0  10431-2 0  9993
2 43880  97.5857 263.5568 0007286 276.5205  83.5208 15.34424788382129
Sparrow
1 43881U 18111F   25347.30476639  .00067580  00000-0  14650-2 0  9999
2 43881  97.6084 270.7835 0002821 327.8939  32.2136 15.44176543382455
Prox-1
1 44339U 19036A   25347.17820341  .00017653  00000-0  19780-2 0  9998
2 44339  23.9957 271.8680 0006476  47.7347 312.3700 14.85197922345733
Taurus 1
1 44530U 19059C   25347.31613249  .00012398  00000-0  21114-2 0  9994
2 44530  98.6227 136.1999 0009101 172.4756 187.6586 14.69169302331327
Duchifat 3
1 44854U 19089C   25342.89580904  .10801921  36355-5  10723-2 0  9995
2 44854  36.9163 249.0625 0006835 253.5286 106.4749 16.36980482331539
TO-108
1 44881U 19093C   25347.30649950  .00002508  00000-0  29195-3 0  9998
2 44881  97.7756  58.9251 0013214 344.8165  15.2652 14.86109025323803
FloripaSat 1
1 44885U 19093G   25347.31036478  .00009894  00000-0  77273-3 0  9993
2 44885  97.8039  75.5056 0010442 335.1777  24.8943 15.01280916324731
RS-44
1 44909U 19096E   25347.32680157  .00000027  00000-0  66161-4 0  9997
2 44909  82.5210 103.2185 0217059 218.7161 139.8214 12.79746065278570
SALSAT
1 46495U 20068K   25347.25281358  .00015093  00000-0  58284-3 0  9997
2 46495  97.8788 334.5529 0008944 227.1555 132.8932 15.26340068286964
CSS (TIANHE-1)
1 48274U 21035A   25347.29114768  .00030374  00000-0  37864-3 0  9993
2 48274  41.4684  13.3607 0008236  35.4193 324.7191 15.59202655264119
TUBIN
1 48900U 21059X   25347.33190840  .02138253  26063-5  90347-3 0  9999
2 48900  97.6632 175.9518 0004904 268.4169  91.6559 16.22944612249428
CUTE
1 49263U 21088D   25347.22437961  .00043767  00000-0  56958-3 0  9991
2 49263  97.4342  70.0945 0004353 268.7079  91.3679 15.58635653233374
TeikyoSat 4
1 49396U 21102B   25347.06639685  .00002936  00000-0  19115-3 0  9991
2 49396  97.3902  18.6537 0011396 206.9502 153.1136 15.08644147224656
Z-Sat
1 49399U 21102E   25347.30506595  .00008718  00000-0  44967-3 0  9991
2 49399  97.3587  23.2309 0017414 170.4782 189.6785 15.16447797225251
